Lapse_Rate
5.7 5.9 6.0 7.0 7.6 7.7 8.1 8.5 8.5 7.8 8.0 8.8 8.7 9.0 9.0 9.4 9.6 9.6 9.7 9.7 9.7 9.7 9.6 9.6 9.6 9.6 9.6 9.6 9.6 9.4 9.4 9.5 9.3 9.4 9.2 9.2 9.2 9.5
6.3 6.3 6.7 7.1 7.5 7.7 8.3 8.9 8.9 8.5 8.0 8.9 9.1 9.4 9.6 9.8 9.6 9.7 9.8 9.7 9.7 9.7 9.6 9.6 9.7 9.6 9.5 9.5 9.6 9.5 9.4 9.3 9.3 9.2 9.1 9.3 9.3 9.3
6.7 7.0 6.7 7.0 7.4 8.2 8.4 8.7 8.8 8.9 8.4 8.9 9.4 9.7 9.5 9.4 9.8 9.9 9.7 9.2 9.4 9.7 9.7 9.7 9.6 9.6 9.5 9.5 9.5 9.4 9.4 9.5 9.4 9.3 9.3 9.1 9.2 9.3
6.9 6.8 7.0 8.2 7.9 8.3 8.8 8.9 9.0 9.2 8.8 8.4 9.0 9.1 9.2 9.5 9.6 9.3 9.6 10.0 9.6 9.9 9.7 9.7 9.6 9.6 9.5 9.6 9.5 9.4 9.4 9.4 9.3 9.4 9.5 9.6 9.3 9.5
7.1 7.3 7.7 8.1 8.2 8.7 9.0 9.1 9.2 9.7 9.2 8.8 8.6 9.2 9.2 9.4 9.0 9.0 9.3 9.4 9.9 9.7 9.8 9.7 9.7 9.6 9.6 9.6 9.6 9.6 9.6 9.6 9.6 9.6 9.6 9.6 9.6 9.7
8.1 8.4 8.5 8.4 8.6 8.8 8.8 8.9 9.5 9.0 9.2 8.8 8.5 8.2 8.7 8.9 9.0 8.8 8.7 9.1 9.2 9.9 9.5 8.9 9.6 9.7 9.7 9.7 9.6 9.6 9.6 9.6 9.7 9.7 9.7 9.6 9.5 9.6
8.1 8.6 9.0 9.2 9.0 9.4 9.5 9.2 9.1 8.8 8.3 7.8 8.1 8.1 8.2 8.6 8.6 8.8 8.7 8.8 8.3 8.4 8.9 7.4 9.1 8.4 8.0 9.0 9.3 9.7 9.7 9.8 9.7 9.6 9.6 9.5 9.4 9.3
8.2 8.3 9.0 9.3 9.6 9.7 9.7 9.6 9.4 8.8 7.6 7.5 7.5 8.2 8.2 8.7 8.9 8.5 7.8 7.9 7.4 8.8 8.9 7.1 8.3 7.8 8.2 8.2 9.6 9.8 9.7 9.7 9.6 9.4 9.4 9.3 9.3 9.2
8.2 8.8 9.3 9.8 9.6 9.5 9.6 9.7 9.3 9.4 9.3 8.7 8.5 8.6 8.5 8.7 7.8 7.4 7.7 7.9 8.2 8.3 8.6 6.9 7.9 7.5 7.7 8.1 8.9 9.5 9.0 7.9 9.1 9.3 9.3 9.2 9.1 9.1
9.3 9.4 9.3 9.4 9.5 9.4 9.3 8.2 8.2 8.5 9.1 9.6 9.2 9.1 8.8 8.8 7.3 7.1 8.2 7.9 7.9 8.4 9.1 7.4 7.6 6.6 7.9 7.6 6.6 6.4 7.0 9.3 9.4 9.4 9.3 9.2 9.2 9.0
9.5 9.5 9.5 9.4 9.7 9.6 8.9 7.9 8.5 9.1 9.8 9.8 9.7 9.6 9.4 9.6 9.6 8.7 7.3 7.4 7.5 7.8 7.9 8.1 7.4 7.5 6.7 5.0 5.9 7.8 8.2 7.5 6.5 7.9 8.8 9.1 9.1 9.0
9.3 9.4 9.7 9.6 9.6 9.6 9.1 8.3 8.4 8.9 8.8 8.4 8.7 9.1 9.5 9.2 9.7 9.0 8.2 7.1 7.1 7.0 6.9 7.4 7.3 7.8 7.0 7.5 6.0 4.7 4.4 5.2 6.3 6.5 7.3 7.9 8.4 7.4
9.0 9.4 9.6 9.6 9.5 9.4 9.4 8.8 8.8 9.2 8.9 8.6 8.9 9.1 8.6 8.5 8.9 8.8 8.3 7.3 7.0 6.8 5.1 7.7 7.1 6.7 7.2 7.0 5.6 4.6 4.4 4.0 4.8 4.7 5.9 7.3 8.4 8.1
9.1 9.4 9.3 9.4 9.4 9.5 9.3 9.6 9.5 9.3 8.8 9.0 8.7 8.4 8.5 8.3 7.8 7.0 6.3 6.0 6.2 6.4 5.0 5.6 6.5 6.2 6.5 6.9 7.1 5.3 4.7 4.5 5.3 5.1 5.8 7.0 7.8 7.9
9.4 9.3 9.4 9.4 9.5 9.4 9.6 9.6 9.5 9.1 9.0 8.4 8.0 7.9 7.9 6.8 5.9 5.6 5.9 6.5 6.4 4.9 4.6 4.8 5.8 6.4 6.8 6.8 6.9 6.1 7.7 5.5 4.8 6.2 6.7 6.6 6.4 6.6
9.0 8.8 9.3 9.5 9.6 9.5 9.3 9.2 9.1 9.0 8.6 7.8 7.0 6.7 6.5 5.9 5.5 5.9 5.9 5.5 6.2 4.4 4.5 4.5 5.8 7.1 6.7 6.6 6.6 7.0 6.8 6.7 6.7 6.6 7.0 6.2 6.1 7.1
9.1 8.5 8.8 9.1 8.8 9.0 8.8 8.4 8.0 7.8 7.2 6.8 6.4 5.8 5.3 5.7 5.1 5.1 5.3 6.1 7.0 6.1 4.9 4.6 5.5 6.9 6.7 6.5 6.5 5.9 6.2 6.8 7.4 7.4 6.8 6.6 6.0 7.1
8.5 8.7 8.7 8.6 8.6 8.5 8.1 7.1 6.4 6.3 6.2 5.8 5.2 5.3 5.6 5.3 5.2 5.0 5.4 5.1 6.5 5.8 6.4 5.8 7.2 7.1 6.6 7.4 8.4 6.8 7.2 6.9 6.6 6.8 6.9 6.8 6.7 6.0
8.7 8.6 8.4 8.4 8.2 7.8 7.3 6.4 5.6 5.4 5.2 4.8 5.0 4.6 4.6 5.1 5.4 4.3 4.7 5.1 5.2 5.7 5.8 7.2 7.0 6.9 6.9 6.9 7.0 8.4 7.0 5.6 6.0 6.8 7.5 7.3 7.0 5.9
8.4 8.3 7.9 7.8 7.1 6.4 5.9 5.5 5.0 4.6 4.3 4.4 4.3 4.4 4.2 4.5 4.6 4.4 4.7 5.3 5.7 6.5 6.9 7.7 7.5 7.0 6.8 6.8 6.9 5.5 5.9 6.8 6.5 6.7 6.9 6.9 6.8 7.4
8.0 7.2 7.0 6.4 6.0 5.7 5.3 4.8 4.5 3.9 4.3 4.5 3.7 3.8 3.9 4.5 4.1 4.3 4.7 5.9 7.5 6.8 7.0 7.1 6.9 8.6 7.5 7.0 6.8 7.5 6.2 6.4 7.3 6.6 6.3 6.4 6.8 6.8
7.0 6.2 5.8 5.5 5.1 4.7 4.4 4.0 3.7 3.5 3.5 3.7 3.6 3.6 3.7 4.1 4.1 4.4 4.7 5.4 5.8 6.3 6.4 7.1 7.5 6.9 6.7 6.8 6.7 7.0 6.7 6.3 6.9 7.3 7.5 6.5 6.3 6.4
5.9 5.5 5.0 4.5 4.2 4.0 3.8 3.5 3.3 3.1 3.2 3.3 3.3 3.2 3.4 3.7 4.0 4.4 5.0 5.8 6.4 6.6 7.7 7.3 7.1 7.3 7.6 7.2 7.3 6.5 6.5 7.1 6.5 6.3 6.4 7.7 6.3 6.1
Wind_Speed
3 4 4 5 4 5 5 6 7 9 10 8 8 9 13 15 17 19 21 27 31 32 33 33 35 37 37 37 36 36 36 36 36 35 37 36 38 39
3 5 5 5 5 5 6 6 7 9 12 8 9 11 12 13 20 23 22 29 27 32 34 34 35 33 35 36 36 36 37 37 38 35 37 38 38 39
5 6 7 7 6 6 6 7 7 8 11 10 9 10 12 14 14 19 19 21 23 29 35 32 33 33 34 35 36 36 36 36 36 36 36 37 38 38
7 7 8 7 7 8 7 9 8 10 10 16 11 10 13 13 14 14 11 18 22 23 30 33 34 34 35 35 35 35 35 35 35 36 35 36 35 36
7 8 8 8 8 7 8 8 9 9 10 11 13 10 10 11 13 11 14 12 15 24 30 32 33 36 34 33 34 34 34 34 35 35 34 34 34 34
7 7 8 9 10 9 9 10 10 10 11 10 12 12 11 11 10 12 10 9 10 13 23 29 31 32 32 33 35 34 33 32 32 32 31 31 31 31
8 9 8 9 14 14 9 10 11 10 10 11 12 12 11 11 12 10 11 11 14 11 11 14 9 12 15 25 26 30 29 29 30 30 30 31 32 32
8 9 9 13 12 16 18 20 17 12 13 11 11 12 16 12 11 10 12 13 11 9 9 17 11 13 12 11 26 30 30 29 28 30 30 31 31 32
9 9 9 9 12 10 14 20 18 24 23 17 16 13 15 13 12 15 14 12 14 12 12 16 11 14 12 13 27 29 30 30 29 28 28 29 30 31
9 9 10 10 10 13 11 11 12 13 14 11 13 13 13 14 14 12 14 15 14 11 10 13 13 14 12 12 30 30 27 25 24 26 30 30 30 30
9 9 10 11 16 19 13 12 14 13 17 24 24 28 29 27 19 10 10 10 13 12 10 10 9 12 14 15 11 20 22 27 28 26 27 29 31 31
9 10 17 15 18 21 14 13 14 14 13 14 13 16 15 14 20 11 9 9 10 13 7 6 10 8 7 7 6 12 10 22 26 28 27 30 31 13
8 8 8 19 22 25 23 13 14 16 16 12 11 9 10 10 9 9 10 9 10 12 16 11 9 11 7 10 10 11 12 12 11 16 25 28 29 25
9 8 10 21 25 23 19 21 21 19 9 9 9 9 10 10 9 10 13 13 11 15 16 14 9 11 12 13 14 11 12 13 11 12 12 19 27 28
9 15 24 24 23 15 18 20 17 7 7 8 9 10 9 10 12 12 12 13 13 14 11 15 11 12 11 12 13 14 15 14 13 11 10 12 13 13
14 11 17 19 16 14 11 9 7 7 8 8 9 10 10 10 10 9 10 10 10 11 12 10 12 12 11 11 12 14 14 10 12 11 11 12 13 11
16 8 8 7 7 7 7 7 7 7 8 8 9 9 10 10 10 9 9 10 10 11 12 11 11 12 12 15 12 13 12 13 11 12 13 12 13 11
8 7 7 7 8 8 8 9 8 12 9 8 9 9 9 10 10 10 9 9 10 11 11 11 11 11 10 10 16 9 11 11 12 13 12 10 12 11
6 6 7 7 8 8 8 8 10 9 11 9 9 9 10 9 13 10 10 10 11 10 11 11 10 10 12 13 13 9 9 12 12 12 10 10 11 13
6 6 7 7 8 8 9 9 9 10 9 9 10 9 10 9 10 10 10 11 11 11 11 10 9 9 10 11 13 15 19 10 11 12 12 11 11 19
6 7 7 8 8 8 9 9 10 10 10 9 10 9 10 9 10 10 11 20 18 10 11 11 10 23 11 10 9 11 12 18 15 12 12 11 10 8
6 7 8 8 8 9 9 9 10 10 10 9 10 10 9 9 10 11 10 10 11 10 10 9 11 10 8 8 11 14 12 12 14 18 19 12 6 6
7 8 8 9 8 8 9 9 10 10 10 10 10 10 9 10 10 10 10 10 10 9 10 10 10 9 9 8 13 10 14 13 10 12 10 15 15 17
Wind_Direction
291 270 273 281 285 287 288 285 289 296 295 299 298 323 311 309 301 307 301 294 294 299 299 298 298 297 297 298 296 294 293 287 286 284 279 279 278 275
275 288 289 290 297 293 284 283 281 285 287 296 295 307 306 307 307 299 292 296 301 297 295 293 298 297 296 294 293 291 289 291 286 284 282 278 277 275
279 277 287 291 285 290 291 289 285 285 286 292 293 298 305 304 293 293 299 298 287 295 297 296 296 294 292 292 290 290 289 287 286 284 285 286 282 280
288 290 288 292 294 292 288 289 289 289 288 293 296 302 293 294 296 296 292 291 290 292 298 299 297 297 296 294 293 289 284 286 286 286 284 281 279 278
288 288 293 295 292 293 295 296 293 292 293 293 301 297 302 297 299 292 287 287 299 303 299 299 300 296 294 294 292 289 287 288 286 285 283 281 279 277
289 285 285 288 290 299 306 301 298 303 300 302 302 299 296 302 290 298 301 301 300 298 296 292 296 293 293 296 294 291 290 287 285 284 282 282 277 275
296 291 289 295 297 287 287 290 298 301 301 294 291 297 300 307 303 307 302 308 298 291 302 291 294 296 288 291 290 289 287 286 286 285 282 279 275 272
297 301 303 301 295 301 295 297 296 301 290 291 293 296 298 302 309 310 304 299 301 297 307 294 295 291 289 287 289 295 294 290 285 284 283 281 278 275
299 297 299 302 308 303 303 301 309 298 297 294 293 295 301 305 306 295 293 298 296 298 298 288 299 292 293 290 292 295 297 291 287 285 284 282 282 280
293 294 299 297 300 302 302 300 294 288 286 293 293 298 296 295 286 284 297 296 291 287 288 287 299 291 293 296 295 295 290 286 288 289 289 288 286 281
298 302 302 301 302 307 307 306 301 302 302 304 310 300 295 298 304 301 296 295 295 295 299 291 290 300 300 291 281 287 292 299 298 294 293 292 291 289
312 312 305 308 309 314 312 308 306 309 310 302 299 297 299 299 303 301 296 293 295 299 292 303 299 309 304 276 291 300 292 297 300 297 296 296 294 290
306 305 309 314 314 312 313 312 304 304 306 303 297 303 304 303 298 297 295 288 290 284 287 301 298 295 275 295 296 297 296 296 299 296 292 294 293 293
303 307 308 305 309 313 317 306 307 308 302 298 305 304 303 300 300 300 294 284 270 268 282 283 278 281 285 288 293 297 297 294 291 292 289 287 294 296
310 307 312 315 314 315 306 309 313 301 305 306 300 298 298 298 298 293 290 285 285 279 276 274 269 276 274 279 287 290 298 304 295 285 290 296 296 296
313 305 314 311 313 313 316 315 312 309 305 302 299 296 297 298 295 295 297 298 292 293 292 278 276 278 279 274 279 285 293 287 290 292 295 291 294 291
320 320 308 318 321 317 317 315 313 312 304 299 297 298 297 296 296 298 292 292 290 297 300 303 293 278 271 270 278 280 288 289 292 300 298 296 297 296
322 308 320 320 316 316 315 312 306 305 300 300 297 293 295 296 296 297 296 292 292 296 298 302 303 301 296 272 263 278 292 293 298 299 297 296 299 307
316 317 313 312 310 310 308 305 303 302 303 296 295 296 294 294 304 297 296 294 296 298 298 298 303 303 308 310 310 277 305 298 298 298 301 299 297 304
317 312 311 309 310 308 304 302 300 301 300 299 296 296 296 291 295 295 295 296 297 296 300 306 307 304 302 309 309 305 303 293 304 303 308 305 289 283
315 314 310 308 304 301 298 298 297 297 298 301 297 293 293 294 292 290 291 300 305 303 301 304 304 302 301 294 296 303 308 309 301 306 309 308 306 313
316 310 306 302 300 297 297 297 298 298 299 298 295 293 293 290 291 293 293 297 298 295 295 303 310 309 305 310 303 306 310 314 311 302 299 283 312 315
309 303 302 300 297 295 297 297 296 296 296 294 292 292 292 294 294 291 291 292 293 300 316 313 314 314 315 312 314 310 315 321 320 321 320 328 322 314